[Iaude] MPEC A30: 2024 AL [a=2.68,e=0.67,i=1.1,H=27.7]
    mpec at marsden.cfa.harvard.edu 
    mpec at marsden.cfa.harvard.edu
       
    Wed Jan  3 12:08:21 EST 2024
    
    
  
M.P.E.C. 2024-A30                               Issued 2024 January 3, 17:06 UT
     The Minor Planet Electronic Circulars contain information on unusual
         minor planets, routine data on comets and natural satellites,
         and occasional editorial announcements.  They are published
    on behalf of Division F of the International Astronomical Union by the
          Minor Planet Center, Smithsonian Astrophysical Observatory,
                          Cambridge, MA 02138, U.S.A.
			  
             Prepared using the Tamkin Foundation Computer Network
                              MPC at CFA.HARVARD.EDU
            URL https://www.minorplanetcenter.net/    ISSN 1523-6714
                                    2024 AL                                     
Observations:
     K24A00L  C2024 01 02.56723708 45 12.196+21 54 32.15               VEA030F51
     K24A00L  C2024 01 02.58020208 45 11.387+21 51 34.99               VEA030F51
     K24A00L* C2024 01 02.59396208 45 10.680+21 48 26.57         19.81wXEA030F51
     K24A00L  C2024 01 02.60744808 45 10.090+21 45 23.48         19.94wXEA030F51
     K24A00L  C2024 01 03.26485908 46 56.802+19 53 42.43         20.2 GVEA030H01
     K24A00L  C2024 01 03.26918708 46 56.631+19 53 10.82         20.3 GVEA030H01
     K24A00L  C2024 01 03.28119308 46 56.091+19 51 43.48         20.0 GVEA030H01
     K24A00L  C2024 01 03.28505508 46 55.901+19 51 15.43         20.0 GVEA030H01
     K24A00L KC2024 01 03.32454508 46 45.71 +19 45 58.8          20.5 GVEA030H21
     K24A00L KC2024 01 03.32734108 46 45.55 +19 45 38.2          20.8 GVEA030H21
     K24A00L  C2024 01 03.60686308 46 51.967+19 15 31.79         20.14GVEA030F52
     K24A00L  C2024 01 03.60768008 46 51.898+19 15 26.40         20.91GVEA030F52
Observer details:
F51 Pan-STARRS 1, Haleakala.  Observers J. Herman, T. Lowe, P. Minguez, A.
    Schultz, I. Smith.  Measurers K. Chambers, T. de Boer, J. Fairlamb, H.
    Gao, M. Huber, C.-C. Lin, E. Magnier, Y. Ramanjooloo, R. Wainscoat, R.
    Weryk.  1.8-m Ritchey-Chretien + CCD.
F52 Pan-STARRS 2, Haleakala.  Observers J. Herman, T. Lowe, P. Minguez, A.
    Schultz, I. Smith.  Measurers K. Chambers, T. de Boer, J. Fairlamb, H.
    Gao, M. Huber, C.-C. Lin, E. Magnier, Y. Ramanjooloo, R. Wainscoat, R.
    Weryk.  1.8-m Ritchey-Chretien + CCD.
H01 Magdalena Ridge Observatory, Socorro.  Observers W. H. Ryan, E. V. Ryan.
    Measurer W. H. Ryan.  2.4-m f/8.9 Ritchey-Chretien + CCD.
H21 Astronomical Research Observatory, Westfield.  Observer R. Holmes.
    Measurers T. Linder, R. Holmes, L. Horn.  0.76-m f/3.0 astrograph + CCD.
Orbital elements:
2024 AL                                                  Earth MOID = 0.0021 AU
Epoch 2023 Sept. 13.0 TT = JDT 2460200.5                MPC                     
M 341.80451              (2000.0)            P               Q                  
n   0.22467341     Peri.  133.64375     +0.51630786     -0.85618769             
a   2.6797951      Node   285.26208     +0.77989302     +0.47932835             
e   0.6673702      Incl.    1.14067     +0.35382633     +0.19283923             
P   4.39           H   27.70          G   0.15           U   7                  
Residuals in seconds of arc
240102 F51  0.3+  0.0     240103 H01  0.1-  0.0     240103 H21  0.0   0.0
240102 F51  0.1-  0.6+    240103 H01  0.0   0.1-    240103 H21  0.2+  0.2+
240102 F51  0.0   0.2-    240103 H01  0.0   0.1-    240103 F52  0.0   0.1-
240102 F51  0.2-  0.4-    240103 H01  0.0   0.1-    240103 F52  0.3-  0.0
Ephemeris:
2024 AL                  a,e,i = 2.68, 0.67, 1                   q = 0.8914
Date    TT    R. A. (2000) Decl.     Delta      r    Elong.  Phase     V
2023 12 04    20 37 03.2 -14 50 12   0.2002  0.8915    56.7   112.5    28.3
...
2023 12 19    20 48 44.3 -13 04 16   0.08962 0.9225    44.7   131.4    28.1
...
2023 12 27    20 52 57.5 -10 00 27   0.03143 0.9592    38.8   140.0    27.0
...
2024 01 02    08 43 27.2 +24 42 29   0.01224 0.9943   153.3    26.4    19.3
2024 01 03    08 46 16.5 +20 33 48   0.01937 1.0006   153.2    26.3    20.3
2024 01 04    08 47 27.0 +18 39 24   0.02655 1.0071   153.5    25.8    21.0
...
2024 01 10    08 48 22.2 +15 33 33   0.07015 1.0490   158.5    20.1    23.0
...
2024 01 18    08 46 42.1 +14 54 11   0.1304  1.1110   166.7    11.8    24.2
...
2024 02 02    08 43 33.2 +14 55 21   0.2555  1.2403   175.7     3.4    25.5
A. U. Tomatic                (C) Copyright 2024 MPC           M.P.E.C. 2024-A30
    
    
More information about the Iaude
mailing list